COSMOS 1275 DEB, 12708

Orbit data source: Space-Track

COSMOS 1275 DEB, 12708 is space debris in LEO originally from a launch on Thu, 04 Jun 1981 UTC launched from the Plesetsk Missile And Space Complex (PKMTR). Debris objects in space refer to the collection of defunct objects orbiting the Earth. Examples of debris include non-operational satellites, rocket bodies, and fragments generated from explosions, collisions, or faulty payload assembly.

Loading next visibility...
Identifier
12708, 1981-053BC
Orbit
LEO
Country
Flag of CISCIS
Related business
Manufacturer
Unknown
Mission
Spacecraft
Bus & Motor
Unknown
Mass
Unknown
Launch date (UTC)
1981-06-04 (45 years ago)
Launch vehicle
Unknown
Launch site
Plesetsk Missile And Space Complex (PKMTR)
Object type
Payload
Rocket body
Debris
Shape & HBR
Unknown shape, 0.2 m
Radar Cross Section
Small (<0.1 m²)

Expand to show TLE details & history
Last TLE update: 9 hours ago

TLE from 9 hours ago
0 COSMOS 1275 DEB
1 12708U 81053BC  26046.25263149  .00021176  00000-0  35201-2 0  9995
2 12708  82.8632 149.1008 0022785 205.5799 154.4284 14.69838460295961
Epoch: 2026-02-15T06:03Z
TLE epoch observation values (Epoch: 2026-02-15T06:03:47.360Z)
Latitude
-0.00007°
Longitude
-87.11054°
Altitude
679.092 km
Speed
7.509 km/s
True Right ascension
09h 56m 24s
True Declination
0° 00' 00"
Sunlit
Object was in full shadow at epoch
Visualization orbit readout
Latitude
Unknown
Longitude
Unknown
Altitude
Unknown
Speed
Unknown
Apparent Right ascension
Unknown
Apparent Declination
Unknown
Sunlit
N/A
Visualization observer readout
Local Sidereal Time
17:37:02
Azimuth
Unknown
Elevation
Unknown
Doppler factor
Unknown
Orbital elements
Apogee altitude
674.639 km
Perigee altitude
642.573 km
Semi-major axis
7,036.743 km
Eccentricity
0.00228
Inclination
82.8632°
RAAN
149.1008°
Arg. of periapsis
205.5799°
True anomaly
154.54081°
Mean anomaly
154.4284°
Eccentric anomaly
154.48463°
Mean motion
3.67693 °/min
Orbital period
97.91 mins
BSTAR
0.0035201
Loading maneuver chart data...
Computing Atmospheric mass density...

Documentation

Showing up to 5 results
|